Regional Weather Roundup
Issued by NWS Cleveland, OH

Home | Current Version | Previous Version | Graphics & Text | Print | Product List | Glossary On
Versions: 1 2 3 4 5 6 7 8 9 10 11 12 13 14 15 16 17 18 19 20 21 22 23 24 25 26 27 28 29 30 31 32 33 34 35 36 37 38 39 40 41 42 43 44 45 46 47 48 49 50
000
ASUS41 KCLE 060402
RWRCLE
OHIO REGIONAL WEATHER ROUNDUP
NATIONAL WEATHER SERVICE CLEVELAND, OH
1200 AM EDT WED MAY 06 2015

NOTE: "FAIR" INDICATES FEW OR NO CLOUDS BELOW 12,000 FEET WITH NO
SIGNIFICANT WEATHER AND/OR OBSTRUCTIONS TO VISIBILITY.

OHZ001>008-015>018-024>027-034-035-043-044-060500-
   NORTHWEST OHIO

CITY           SKY/WX    TMP DP  RH WIND       PRES   REMARKS
DEFIANCE       CLOUDY    53  49  86 E5        30.24F
FINDLAY        CLOUDY    54  51  90 E9        30.22F FOG
TOLEDO EXPRESS CLOUDY    52  50  93 E5        30.25S FOG
TOLEDO EXEC    CLOUDY    52  49  89 NE8       30.26S FOG
LIMA           CLOUDY    54  53  97 E7        30.22S FOG
$$

OHZ009>014-019>023-028>033-038-089-060500-
   NORTHEAST OHIO

CITY           SKY/WX    TMP DP  RH WIND       PRES   REMARKS
CLE-HOPKINS    CLOUDY    57  55  93 NW6       30.27F THUNDER FOG
CLE-LAKEFRONT  LGT RAIN  53  52  96 NE7       30.23F FOG
CUY CO. ARPT   NOT AVBL
LORAIN-ELYRIA  CLOUDY    54  52  93 NE7       30.26F FOG
ASHTABULA      LGT RAIN  53  52  96 CALM      30.26S FOG
AKRON-CANTON   PTCLDY    60  57  89 NE8       30.24R FOG
WOOSTER        PTCLDY    55  53  93 N5        30.24S FOG
MANSFIELD      CLEAR     54  53  97 N6        30.24S FOG
YOUNGSTOWN     MOCLDY    59  57  93 NE5       30.25S FOG
$$

OHZ042-051>053-060>062-070>072-077>081-060500-
  SOUTHWEST OHIO

CITY           SKY/WX    TMP DP  RH WIND       PRES   REMARKS
CINC-COVINGTON CLEAR     65  54  67 CALM      30.21S
CINC-LUNKEN    CLEAR     60  57  89 CALM      30.21R
HAMILTON       CLEAR     61  56  83 CALM      30.21R
DAYTON         PTCLDY    71  54  54 SW5       30.21S
WRIGHT-PAT AFB NOT AVBL
DAYTON GENERAL CLEAR     67  52  58 S5        30.20S
WILMINGTON     CLEAR     64  52  64 CALM      30.21S
$$

OHZ036-037-039>041-045>050-054>059-063>069-073>076-082>088-060500-
  CENTRAL AND SOUTHEAST OHIO

CITY           SKY/WX    TMP DP  RH WIND       PRES   REMARKS
COLUMBUS       CLEAR     65  57  75 CALM      30.19S
OSU AIRPORT    CLEAR     67  54  63 CALM      30.19F
BOLTON FIELD   NOT AVBL
RICKENBACK AFB NOT AVBL
NEWARK         CLEAR     60  57  89 CALM      30.20S
MARION         CLOUDY    57  54  89 N7        30.22S FOG
LANCASTER      CLEAR     58  52  80 CALM      30.20S
ZANESVILLE     CLEAR     65  57  75 CALM      30.20S
NEW PHILLY     CLEAR     61  58  90 CALM      30.23R FOG
$$


USA.gov is the U.S. government's official web portal to all federal, state and local government web resources and services.